Year,Month,Day,Hour,Minute,Value (Times are PST for windspeed in km/hr)
2006,02,03,00,00,1.50
2006,02,03,00,01,0.40
2006,02,03,00,02,2.10
2006,02,03,00,03,0.40
2006,02,03,00,04,0.00
2006,02,03,00,05,0.00
2006,02,03,00,06,0.00
2006,02,03,00,07,0.00
2006,02,03,00,08,1.50
2006,02,03,00,09,1.20
2006,02,03,00,10,0.10
2006,02,03,00,11,0.10
2006,02,03,00,12,0.70
2006,02,03,00,13,2.70
2006,02,03,00,14,1.10
2006,02,03,00,15,0.60
2006,02,03,00,16,0.50
2006,02,03,00,17,0.00
2006,02,03,00,18,1.50
2006,02,03,00,19,1.60
2006,02,03,00,20,0.00
2006,02,03,00,21,1.20
2006,02,03,00,22,0.00
2006,02,03,00,23,0.00
2006,02,03,00,24,0.00
2006,02,03,00,25,0.00
2006,02,03,00,26,0.00
2006,02,03,00,27,0.00
2006,02,03,00,28,0.00
2006,02,03,00,29,0.00
2006,02,03,00,30,0.00
2006,02,03,00,31,0.00
2006,02,03,00,32,0.00
2006,02,03,00,33,0.00
2006,02,03,00,34,0.00
2006,02,03,00,35,1.90
2006,02,03,00,36,1.50
2006,02,03,00,37,1.50
2006,02,03,00,38,1.20
2006,02,03,00,39,2.20
2006,02,03,00,40,0.90
2006,02,03,00,41,0.90
2006,02,03,00,42,1.40
2006,02,03,00,43,1.60
2006,02,03,00,44,0.90
2006,02,03,00,45,0.00
2006,02,03,00,46,0.40
2006,02,03,00,47,0.90
2006,02,03,00,48,0.00
2006,02,03,00,49,1.90
2006,02,03,00,50,4.80
2006,02,03,00,51,4.20
2006,02,03,00,52,2.70
2006,02,03,00,53,1.00
2006,02,03,00,54,0.80
2006,02,03,00,55,2.80
2006,02,03,00,56,0.20
2006,02,03,00,57,0.00
2006,02,03,00,58,0.00
2006,02,03,00,59,0.00
2006,02,03,01,00,0.00
2006,02,03,01,01,0.00
2006,02,03,01,02,0.00
2006,02,03,01,03,0.00
2006,02,03,01,04,1.20
2006,02,03,01,05,0.00
2006,02,03,01,06,0.40
2006,02,03,01,07,1.90
2006,02,03,01,08,0.30
2006,02,03,01,09,0.00
2006,02,03,01,10,0.00
2006,02,03,01,11,0.00
2006,02,03,01,12,0.00
2006,02,03,01,13,0.00
2006,02,03,01,14,0.10
2006,02,03,01,15,0.80
2006,02,03,01,16,1.10
2006,02,03,01,17,2.90
2006,02,03,01,18,2.70
2006,02,03,01,19,2.80
2006,02,03,01,20,0.40
2006,02,03,01,21,0.50
2006,02,03,01,22,1.10
2006,02,03,01,23,0.70
2006,02,03,01,24,0.40
2006,02,03,01,25,1.40
2006,02,03,01,26,1.50
2006,02,03,01,27,1.20
2006,02,03,01,28,0.00
2006,02,03,01,29,0.00
2006,02,03,01,30,0.10
2006,02,03,01,31,2.00
2006,02,03,01,32,1.20
2006,02,03,01,33,0.20
2006,02,03,01,34,0.00
2006,02,03,01,35,0.00
2006,02,03,01,36,1.00
2006,02,03,01,37,0.80
2006,02,03,01,38,0.00
2006,02,03,01,39,0.00
2006,02,03,01,40,0.00
2006,02,03,01,41,0.00
2006,02,03,01,42,0.40
2006,02,03,01,43,0.00
2006,02,03,01,44,0.00
2006,02,03,01,45,0.10
2006,02,03,01,46,0.00
2006,02,03,01,47,0.00
2006,02,03,01,48,0.00
2006,02,03,01,49,0.00
2006,02,03,01,50,0.00
2006,02,03,01,51,0.00
2006,02,03,01,52,0.00
2006,02,03,01,53,0.00
2006,02,03,01,54,1.30
2006,02,03,01,55,0.80
2006,02,03,01,56,0.00
2006,02,03,01,57,0.30
2006,02,03,01,58,0.00
2006,02,03,01,59,0.00
2006,02,03,02,00,0.00
2006,02,03,02,01,0.70
2006,02,03,02,02,0.40
2006,02,03,02,03,1.10
2006,02,03,02,04,2.40
2006,02,03,02,05,2.00
2006,02,03,02,06,0.70
2006,02,03,02,07,1.00
2006,02,03,02,08,2.00
2006,02,03,02,09,0.00
2006,02,03,02,10,0.00
2006,02,03,02,11,0.00
2006,02,03,02,12,0.00
2006,02,03,02,13,1.80
2006,02,03,02,14,3.10
2006,02,03,02,15,3.00
2006,02,03,02,16,1.80
2006,02,03,02,17,0.60
2006,02,03,02,18,0.80
2006,02,03,02,19,2.40
2006,02,03,02,20,1.20
2006,02,03,02,21,0.00
2006,02,03,02,22,0.00
2006,02,03,02,23,0.00
2006,02,03,02,24,0.00
2006,02,03,02,25,0.00
2006,02,03,02,26,0.00
2006,02,03,02,27,0.20
2006,02,03,02,28,2.20
2006,02,03,02,29,1.30
2006,02,03,02,30,0.00
2006,02,03,02,31,0.00
2006,02,03,02,32,0.00
2006,02,03,02,33,0.00
2006,02,03,02,34,0.10
2006,02,03,02,35,1.40
2006,02,03,02,36,0.80
2006,02,03,02,37,0.00
2006,02,03,02,38,0.10
2006,02,03,02,39,0.10
2006,02,03,02,40,0.00
2006,02,03,02,41,0.00
2006,02,03,02,42,0.00
2006,02,03,02,43,0.00
2006,02,03,02,44,0.00
2006,02,03,02,45,0.00
2006,02,03,02,46,0.00
2006,02,03,02,47,0.00
2006,02,03,02,48,0.00
2006,02,03,02,49,1.00
2006,02,03,02,50,0.70
2006,02,03,02,51,0.00
2006,02,03,02,52,0.10
2006,02,03,02,53,1.50
2006,02,03,02,54,2.50
2006,02,03,02,55,1.50
2006,02,03,02,56,2.30
2006,02,03,02,57,2.00
2006,02,03,02,58,2.60
2006,02,03,02,59,3.10
2006,02,03,03,00,2.30
2006,02,03,03,01,2.80
2006,02,03,03,02,1.20
2006,02,03,03,03,1.70
2006,02,03,03,04,0.00
2006,02,03,03,05,1.30
2006,02,03,03,06,2.10
2006,02,03,03,07,5.10
2006,02,03,03,08,4.30
2006,02,03,03,09,1.50
2006,02,03,03,10,0.50
2006,02,03,03,11,0.40
2006,02,03,03,12,0.30
2006,02,03,03,13,2.20
2006,02,03,03,14,1.50
2006,02,03,03,15,2.40
2006,02,03,03,16,1.60
2006,02,03,03,17,1.60
2006,02,03,03,18,0.70
2006,02,03,03,19,0.80
2006,02,03,03,20,1.70
2006,02,03,03,21,1.40
2006,02,03,03,22,0.10
2006,02,03,03,23,0.00
2006,02,03,03,24,0.30
2006,02,03,03,25,0.20
2006,02,03,03,26,0.20
2006,02,03,03,27,0.00
2006,02,03,03,28,0.00
2006,02,03,03,29,0.00
2006,02,03,03,30,4.20
2006,02,03,03,31,2.40
2006,02,03,03,32,1.70
2006,02,03,03,33,2.00
2006,02,03,03,34,1.70
2006,02,03,03,35,0.00
2006,02,03,03,36,0.00
2006,02,03,03,37,0.00
2006,02,03,03,38,1.00
2006,02,03,03,39,0.00
2006,02,03,03,40,0.00
2006,02,03,03,41,0.30
2006,02,03,03,42,0.30
2006,02,03,03,43,0.00
2006,02,03,03,44,0.10
2006,02,03,03,45,1.50
2006,02,03,03,46,0.80
2006,02,03,03,47,0.00
2006,02,03,03,48,0.00
2006,02,03,03,49,0.00
2006,02,03,03,50,0.00
2006,02,03,03,51,0.00
2006,02,03,03,52,0.00
2006,02,03,03,53,0.00
2006,02,03,03,54,0.40
2006,02,03,03,55,1.50
2006,02,03,03,56,1.60
2006,02,03,03,57,1.20
2006,02,03,03,58,1.50
2006,02,03,03,59,1.50
2006,02,03,04,00,1.60
2006,02,03,04,01,1.50
2006,02,03,04,02,3.00
2006,02,03,04,03,2.00
2006,02,03,04,04,1.80
2006,02,03,04,05,0.10
2006,02,03,04,06,0.10
2006,02,03,04,07,2.20
2006,02,03,04,08,0.90
2006,02,03,04,09,1.20
2006,02,03,04,10,0.10
2006,02,03,04,11,0.10
2006,02,03,04,12,0.00
2006,02,03,04,13,1.50
2006,02,03,04,14,1.40
2006,02,03,04,15,0.40
2006,02,03,04,16,0.00
2006,02,03,04,17,0.00
2006,02,03,04,18,0.00
2006,02,03,04,19,0.00
2006,02,03,04,20,0.20
2006,02,03,04,21,0.00
2006,02,03,04,22,1.50
2006,02,03,04,23,0.10
2006,02,03,04,24,0.00
2006,02,03,04,25,0.30
2006,02,03,04,26,3.00
2006,02,03,04,27,2.50
2006,02,03,04,28,0.60
2006,02,03,04,29,0.00
2006,02,03,04,30,0.80
2006,02,03,04,31,2.10
2006,02,03,04,32,0.40
2006,02,03,04,33,0.00
2006,02,03,04,34,0.80
2006,02,03,04,35,0.00
2006,02,03,04,36,2.10
2006,02,03,04,37,1.30
2006,02,03,04,38,1.40
2006,02,03,04,39,0.80
2006,02,03,04,40,1.20
2006,02,03,04,41,0.70
2006,02,03,04,42,1.90
2006,02,03,04,43,0.10
2006,02,03,04,44,0.80
2006,02,03,04,45,1.40
2006,02,03,04,46,2.40
2006,02,03,04,47,1.70
2006,02,03,04,48,2.00
2006,02,03,04,49,1.50
2006,02,03,04,50,3.70
2006,02,03,04,51,3.60
2006,02,03,04,52,3.90
2006,02,03,04,53,1.70
2006,02,03,04,54,1.10
2006,02,03,04,55,2.60
2006,02,03,04,56,1.80
2006,02,03,04,57,0.80
2006,02,03,04,58,2.30
2006,02,03,04,59,0.90
2006,02,03,05,00,0.70
2006,02,03,05,01,1.20
2006,02,03,05,02,0.00
2006,02,03,05,03,0.00
2006,02,03,05,04,0.00
2006,02,03,05,05,0.00
2006,02,03,05,06,0.00
2006,02,03,05,07,0.00
2006,02,03,05,08,0.00
2006,02,03,05,09,0.00
2006,02,03,05,10,0.00
2006,02,03,05,11,0.00
2006,02,03,05,12,0.00
2006,02,03,05,13,0.00
2006,02,03,05,14,0.40
2006,02,03,05,15,1.50
2006,02,03,05,16,0.40
2006,02,03,05,17,0.00
2006,02,03,05,18,0.00
2006,02,03,05,19,0.00
2006,02,03,05,20,0.00
2006,02,03,05,21,0.00
2006,02,03,05,22,0.10
2006,02,03,05,23,0.00
2006,02,03,05,24,0.00
2006,02,03,05,25,0.00
2006,02,03,05,26,0.00
2006,02,03,05,27,0.00
2006,02,03,05,28,0.00
2006,02,03,05,29,0.00
2006,02,03,05,30,0.30
2006,02,03,05,31,0.60
2006,02,03,05,32,1.00
2006,02,03,05,33,2.10
2006,02,03,05,34,3.20
2006,02,03,05,35,1.50
2006,02,03,05,36,1.60
2006,02,03,05,37,0.00
2006,02,03,05,38,0.00
2006,02,03,05,39,0.10
2006,02,03,05,40,2.40
2006,02,03,05,41,3.30
2006,02,03,05,42,1.60
2006,02,03,05,43,2.60
2006,02,03,05,44,3.70
2006,02,03,05,45,2.40
2006,02,03,05,46,1.20
2006,02,03,05,47,2.00
2006,02,03,05,48,0.60
2006,02,03,05,49,0.30
2006,02,03,05,50,0.80
2006,02,03,05,51,1.40
2006,02,03,05,52,2.40
2006,02,03,05,53,1.30
2006,02,03,05,54,1.10
2006,02,03,05,55,3.70
2006,02,03,05,56,4.40
2006,02,03,05,57,2.40
2006,02,03,05,58,0.80
2006,02,03,05,59,0.00
2006,02,03,06,00,0.00
2006,02,03,06,01,0.00
2006,02,03,06,02,0.00
2006,02,03,06,03,0.00
2006,02,03,06,04,0.10
2006,02,03,06,05,0.00
2006,02,03,06,06,0.00
2006,02,03,06,07,0.00
2006,02,03,06,08,0.00
2006,02,03,06,09,0.00
2006,02,03,06,10,0.00
2006,02,03,06,11,0.00
2006,02,03,06,12,0.00
2006,02,03,06,13,0.00
2006,02,03,06,14,0.00
2006,02,03,06,15,0.00
2006,02,03,06,16,0.00
2006,02,03,06,17,0.00
2006,02,03,06,18,0.00
2006,02,03,06,19,0.00
2006,02,03,06,20,0.00
2006,02,03,06,21,0.00
2006,02,03,06,22,0.00
2006,02,03,06,23,0.00
2006,02,03,06,24,0.00
2006,02,03,06,25,0.00
2006,02,03,06,26,0.00
2006,02,03,06,27,0.00
2006,02,03,06,28,0.00
2006,02,03,06,29,0.00
2006,02,03,06,30,0.00
2006,02,03,06,31,0.00
2006,02,03,06,32,0.20
2006,02,03,06,33,0.80
2006,02,03,06,34,2.20
2006,02,03,06,35,2.70
2006,02,03,06,36,3.50
2006,02,03,06,37,3.50
2006,02,03,06,38,3.80
2006,02,03,06,39,2.20
2006,02,03,06,40,1.50
2006,02,03,06,41,1.80
2006,02,03,06,42,2.30
2006,02,03,06,43,3.10
2006,02,03,06,44,2.40
2006,02,03,06,45,0.00
2006,02,03,06,46,0.20
2006,02,03,06,47,0.00
2006,02,03,06,48,0.10
2006,02,03,06,49,0.40
2006,02,03,06,50,0.00
2006,02,03,06,51,2.80
2006,02,03,06,52,3.60
2006,02,03,06,53,3.10
2006,02,03,06,54,2.00
2006,02,03,06,55,2.60
2006,02,03,06,56,2.70
2006,02,03,06,57,2.40
2006,02,03,06,58,1.60
2006,02,03,06,59,0.50
2006,02,03,07,00,0.00
2006,02,03,07,01,0.00
2006,02,03,07,02,0.00
2006,02,03,07,03,0.00
2006,02,03,07,04,0.00
2006,02,03,07,05,0.00
2006,02,03,07,06,0.00
2006,02,03,07,07,0.00
2006,02,03,07,08,0.00
2006,02,03,07,09,0.00
2006,02,03,07,10,0.00
2006,02,03,07,11,0.00
2006,02,03,07,12,0.00
2006,02,03,07,13,0.00
2006,02,03,07,14,0.00
2006,02,03,07,15,0.00
2006,02,03,07,16,0.00
2006,02,03,07,17,0.00
2006,02,03,07,18,0.00
2006,02,03,07,19,0.00
2006,02,03,07,20,0.00
2006,02,03,07,21,0.00
2006,02,03,07,22,0.00
2006,02,03,07,23,0.00
2006,02,03,07,24,0.00
2006,02,03,07,25,0.00
2006,02,03,07,26,0.00
2006,02,03,07,27,0.00
2006,02,03,07,28,0.00
2006,02,03,07,29,0.00
2006,02,03,07,30,0.00
2006,02,03,07,31,0.00
2006,02,03,07,32,0.00
2006,02,03,07,33,0.00
2006,02,03,07,34,0.00
2006,02,03,07,35,0.00
2006,02,03,07,36,0.00
2006,02,03,07,37,0.00
2006,02,03,07,38,0.00
2006,02,03,07,39,0.00
2006,02,03,07,40,0.00
2006,02,03,07,41,0.00
2006,02,03,07,42,0.00
2006,02,03,07,43,0.00
2006,02,03,07,44,0.00
2006,02,03,07,45,0.00
2006,02,03,07,46,1.50
2006,02,03,07,47,1.20
2006,02,03,07,48,0.20
2006,02,03,07,49,0.00
2006,02,03,07,50,0.00
2006,02,03,07,51,0.00
2006,02,03,07,52,0.90
2006,02,03,07,53,1.50
2006,02,03,07,54,0.20
2006,02,03,07,55,0.00
2006,02,03,07,56,0.00
2006,02,03,07,57,1.50
2006,02,03,07,58,0.00
2006,02,03,07,59,0.00
2006,02,03,08,00,0.00
2006,02,03,08,01,0.00
2006,02,03,08,02,0.00
2006,02,03,08,03,0.00
2006,02,03,08,04,0.00
2006,02,03,08,05,0.00
2006,02,03,08,06,0.00
2006,02,03,08,07,0.00
2006,02,03,08,08,0.00
2006,02,03,08,09,0.00
2006,02,03,08,10,0.00
2006,02,03,08,11,0.00
2006,02,03,08,12,0.00
2006,02,03,08,13,0.00
2006,02,03,08,14,0.00
2006,02,03,08,15,0.00
2006,02,03,08,16,0.00
2006,02,03,08,17,0.00
2006,02,03,08,18,0.00
2006,02,03,08,19,0.00
2006,02,03,08,20,0.00
2006,02,03,08,21,0.00
2006,02,03,08,22,1.10
2006,02,03,08,23,0.80
2006,02,03,08,24,0.80
2006,02,03,08,25,0.60
2006,02,03,08,26,1.50
2006,02,03,08,27,1.70
2006,02,03,08,28,2.20
2006,02,03,08,29,2.40
2006,02,03,08,30,3.40
2006,02,03,08,31,3.70
2006,02,03,08,32,1.90
2006,02,03,08,33,1.10
2006,02,03,08,34,1.80
2006,02,03,08,35,1.70
2006,02,03,08,36,1.00
2006,02,03,08,37,1.30
2006,02,03,08,38,1.00
2006,02,03,08,39,1.50
2006,02,03,08,40,0.00
2006,02,03,08,41,0.00
2006,02,03,08,42,0.00
2006,02,03,08,43,1.60
2006,02,03,08,44,2.80
2006,02,03,08,45,1.90
2006,02,03,08,46,2.50
2006,02,03,08,47,1.40
2006,02,03,08,48,1.90
2006,02,03,08,49,2.10
2006,02,03,08,50,1.20
2006,02,03,08,51,1.90
2006,02,03,08,52,2.60
2006,02,03,08,53,2.40
2006,02,03,08,54,2.20
2006,02,03,08,55,2.80
2006,02,03,08,56,3.00
2006,02,03,08,57,0.80
2006,02,03,08,58,2.20
2006,02,03,08,59,2.10
2006,02,03,09,00,2.80
2006,02,03,09,01,3.40
2006,02,03,09,02,3.80
2006,02,03,09,03,4.20
2006,02,03,09,04,4.50
2006,02,03,09,05,3.40
2006,02,03,09,06,4.00
2006,02,03,09,07,4.90
2006,02,03,09,08,5.00
2006,02,03,09,09,3.80
2006,02,03,09,10,3.10
2006,02,03,09,11,2.00
2006,02,03,09,12,3.00
2006,02,03,09,13,1.80
2006,02,03,09,14,4.10
2006,02,03,09,15,2.90
2006,02,03,09,16,3.90
2006,02,03,09,17,5.00
2006,02,03,09,18,4.20
2006,02,03,09,19,4.70
2006,02,03,09,20,5.70
2006,02,03,09,21,4.80
2006,02,03,09,22,4.60
2006,02,03,09,23,4.80
2006,02,03,09,24,5.50
2006,02,03,09,25,5.80
2006,02,03,09,26,5.50
2006,02,03,09,27,5.60
2006,02,03,09,28,4.30
2006,02,03,09,29,2.70
2006,02,03,09,30,4.50
2006,02,03,09,31,4.30
2006,02,03,09,32,4.70
2006,02,03,09,33,7.20
2006,02,03,09,34,8.50
2006,02,03,09,35,7.30
2006,02,03,09,36,4.40
2006,02,03,09,37,5.50
2006,02,03,09,38,3.50
2006,02,03,09,39,4.70
2006,02,03,09,40,3.40
2006,02,03,09,41,2.90
2006,02,03,09,42,2.00
2006,02,03,09,43,1.50
2006,02,03,09,44,4.80
2006,02,03,09,45,4.90
2006,02,03,09,46,4.80
2006,02,03,09,47,5.20
2006,02,03,09,48,5.70
2006,02,03,09,49,8.80
2006,02,03,09,50,6.30
2006,02,03,09,51,6.00
2006,02,03,09,52,6.50
2006,02,03,09,53,4.40
2006,02,03,09,54,6.10
2006,02,03,09,55,5.10
2006,02,03,09,56,8.40
2006,02,03,09,57,4.80
2006,02,03,09,58,5.50
2006,02,03,09,59,4.30
2006,02,03,10,00,5.50
2006,02,03,10,01,6.00
2006,02,03,10,02,5.50
2006,02,03,10,03,4.90
2006,02,03,10,04,3.10
2006,02,03,10,05,3.10
2006,02,03,10,06,3.80
2006,02,03,10,07,3.70
2006,02,03,10,08,2.60
2006,02,03,10,09,4.50
2006,02,03,10,10,3.80
2006,02,03,10,11,2.80
2006,02,03,10,12,4.60
2006,02,03,10,13,1.90
2006,02,03,10,14,3.90
2006,02,03,10,15,3.80
2006,02,03,10,16,7.10
2006,02,03,10,17,6.20
2006,02,03,10,18,5.80
2006,02,03,10,19,4.20
2006,02,03,10,20,4.60
2006,02,03,10,21,5.40
2006,02,03,10,22,5.00
2006,02,03,10,23,7.50
2006,02,03,10,24,6.50
2006,02,03,10,25,4.80
2006,02,03,10,26,5.50
2006,02,03,10,27,6.10
2006,02,03,10,28,5.80
2006,02,03,10,29,10.80
2006,02,03,10,30,6.90
2006,02,03,10,31,4.60
2006,02,03,10,32,4.30
2006,02,03,10,33,7.40
2006,02,03,10,34,7.00
2006,02,03,10,35,6.50
2006,02,03,10,36,5.90
2006,02,03,10,37,5.00
2006,02,03,10,38,4.70
2006,02,03,10,39,5.60
2006,02,03,10,40,5.50
2006,02,03,10,41,3.10
2006,02,03,10,42,5.40
2006,02,03,10,43,6.10
2006,02,03,10,44,3.50
2006,02,03,10,45,7.90
2006,02,03,10,46,7.50
2006,02,03,10,47,4.70
2006,02,03,10,48,5.30
2006,02,03,10,49,5.90
2006,02,03,10,50,5.80
2006,02,03,10,51,8.60
2006,02,03,10,52,8.10
2006,02,03,10,53,8.00
2006,02,03,10,54,7.70
2006,02,03,10,55,3.80
2006,02,03,10,56,5.00
2006,02,03,10,57,6.80
2006,02,03,10,58,6.30
2006,02,03,10,59,8.70
2006,02,03,11,00,9.60
2006,02,03,11,01,7.20
2006,02,03,11,02,7.70
2006,02,03,11,03,7.30
2006,02,03,11,04,6.00
2006,02,03,11,05,8.40
2006,02,03,11,06,6.60
2006,02,03,11,07,8.60
2006,02,03,11,08,10.70
2006,02,03,11,09,10.70
2006,02,03,11,10,8.30
2006,02,03,11,11,5.90
2006,02,03,11,12,6.50
2006,02,03,11,13,7.50
2006,02,03,11,14,7.20
2006,02,03,11,15,8.60
2006,02,03,11,16,10.20
2006,02,03,11,17,9.40
2006,02,03,11,18,9.40
2006,02,03,11,19,10.40
2006,02,03,11,20,7.60
2006,02,03,11,21,6.60
2006,02,03,11,22,7.80
2006,02,03,11,23,9.00
2006,02,03,11,24,10.30
2006,02,03,11,25,9.60
2006,02,03,11,26,11.20
2006,02,03,11,27,5.70
2006,02,03,11,28,4.40
2006,02,03,11,29,10.60
2006,02,03,11,30,10.70
2006,02,03,11,31,5.80
2006,02,03,11,32,6.70
2006,02,03,11,33,5.40
2006,02,03,11,34,5.10
2006,02,03,11,35,8.90
2006,02,03,11,36,4.60
2006,02,03,11,37,7.90
2006,02,03,11,38,9.80
2006,02,03,11,39,6.30
2006,02,03,11,40,4.30
2006,02,03,11,41,6.30
2006,02,03,11,42,8.80
2006,02,03,11,43,6.50
2006,02,03,11,44,4.20
2006,02,03,11,45,4.90
2006,02,03,11,46,6.30
2006,02,03,11,47,3.70
2006,02,03,11,48,2.00
2006,02,03,11,49,4.80
2006,02,03,11,50,7.30
2006,02,03,11,51,5.30
2006,02,03,11,52,6.00
2006,02,03,11,53,8.10
2006,02,03,11,54,8.90
2006,02,03,11,55,5.90
2006,02,03,11,56,4.20
2006,02,03,11,57,7.40
2006,02,03,11,58,6.90
2006,02,03,11,59,4.80
2006,02,03,12,00,8.30
2006,02,03,12,01,8.20
2006,02,03,12,02,8.10
2006,02,03,12,03,9.10
2006,02,03,12,04,4.00
2006,02,03,12,05,5.30
2006,02,03,12,06,8.30
2006,02,03,12,07,6.50
2006,02,03,12,08,4.30
2006,02,03,12,09,6.60
2006,02,03,12,10,10.00
2006,02,03,12,11,8.10
2006,02,03,12,12,7.80
2006,02,03,12,13,7.80
2006,02,03,12,14,5.70
2006,02,03,12,15,6.20
2006,02,03,12,16,5.40
2006,02,03,12,17,5.10
2006,02,03,12,18,6.60
2006,02,03,12,19,2.50
2006,02,03,12,20,7.00
2006,02,03,12,21,5.50
2006,02,03,12,22,5.40
2006,02,03,12,23,8.20
2006,02,03,12,24,9.10
2006,02,03,12,25,8.60
2006,02,03,12,26,5.70
2006,02,03,12,27,7.60
2006,02,03,12,28,8.10
2006,02,03,12,29,5.90
2006,02,03,12,30,9.00
2006,02,03,12,31,8.70
2006,02,03,12,32,8.50
2006,02,03,12,33,9.10
2006,02,03,12,34,6.90
2006,02,03,12,35,8.10
2006,02,03,12,36,9.30
2006,02,03,12,37,8.80
2006,02,03,12,38,5.40
2006,02,03,12,39,7.00
2006,02,03,12,40,6.70
2006,02,03,12,41,9.40
2006,02,03,12,42,6.40
2006,02,03,12,43,5.90
2006,02,03,12,44,5.30
2006,02,03,12,45,4.50
2006,02,03,12,46,7.50
2006,02,03,12,47,7.00
2006,02,03,12,48,8.50
2006,02,03,12,49,5.70
2006,02,03,12,50,8.50
2006,02,03,12,51,5.80
2006,02,03,12,52,7.10
2006,02,03,12,53,8.60
2006,02,03,12,54,5.00
2006,02,03,12,55,6.50
2006,02,03,12,56,7.50
2006,02,03,12,57,7.40
2006,02,03,12,58,9.90
2006,02,03,12,59,10.50
2006,02,03,13,00,10.70
2006,02,03,13,01,9.50
2006,02,03,13,02,7.70
2006,02,03,13,03,8.80
2006,02,03,13,04,10.10
2006,02,03,13,05,12.20
2006,02,03,13,06,7.10
2006,02,03,13,07,5.10
2006,02,03,13,08,8.40
2006,02,03,13,09,5.50
2006,02,03,13,10,6.30
2006,02,03,13,11,3.40
2006,02,03,13,12,4.90
2006,02,03,13,13,7.90
2006,02,03,13,14,4.40
2006,02,03,13,15,6.80
2006,02,03,13,16,5.80
2006,02,03,13,17,5.90
2006,02,03,13,18,6.50
2006,02,03,13,19,6.00
2006,02,03,13,20,5.30
2006,02,03,13,21,4.80
2006,02,03,13,22,5.20
2006,02,03,13,23,8.10
2006,02,03,13,24,5.60
2006,02,03,13,25,3.60
2006,02,03,13,26,6.10
2006,02,03,13,27,4.10
2006,02,03,13,28,4.70
2006,02,03,13,29,4.60
2006,02,03,13,30,4.90
2006,02,03,13,31,4.00
2006,02,03,13,32,4.60
2006,02,03,13,33,5.00
2006,02,03,13,34,4.30
2006,02,03,13,35,4.40
2006,02,03,13,36,3.50
2006,02,03,13,37,3.40
2006,02,03,13,38,3.60
2006,02,03,13,39,4.40
2006,02,03,13,40,5.00
2006,02,03,13,41,3.40
2006,02,03,13,42,3.80
2006,02,03,13,43,5.10
2006,02,03,13,44,3.90
2006,02,03,13,45,5.00
2006,02,03,13,46,5.30
2006,02,03,13,47,3.60
2006,02,03,13,48,3.60
2006,02,03,13,49,5.50
2006,02,03,13,50,3.70
2006,02,03,13,51,4.90
2006,02,03,13,52,2.40
2006,02,03,13,53,5.20
2006,02,03,13,54,4.00
2006,02,03,13,55,6.40
2006,02,03,13,56,7.70
2006,02,03,13,57,3.10
2006,02,03,13,58,6.50
2006,02,03,13,59,3.60
2006,02,03,14,00,9.40
2006,02,03,14,01,7.00
2006,02,03,14,02,6.40
2006,02,03,14,03,8.40
2006,02,03,14,04,5.40
2006,02,03,14,05,5.70
2006,02,03,14,06,6.40
2006,02,03,14,07,9.00
2006,02,03,14,08,7.40
2006,02,03,14,09,9.60
2006,02,03,14,10,6.10
2006,02,03,14,11,7.60
2006,02,03,14,12,7.00
2006,02,03,14,13,10.20
2006,02,03,14,14,8.80
2006,02,03,14,15,6.20
2006,02,03,14,16,8.60
2006,02,03,14,17,8.90
2006,02,03,14,18,6.40
2006,02,03,14,19,13.80
2006,02,03,14,20,12.10
2006,02,03,14,21,8.50
2006,02,03,14,22,17.50
2006,02,03,14,23,8.60
2006,02,03,14,24,9.00
2006,02,03,14,25,11.40
2006,02,03,14,26,14.80
2006,02,03,14,27,13.90
2006,02,03,14,28,12.40
2006,02,03,14,29,11.80
2006,02,03,14,30,7.60
2006,02,03,14,31,10.50
2006,02,03,14,32,10.90
2006,02,03,14,33,14.00
2006,02,03,14,34,10.70
2006,02,03,14,35,5.30
2006,02,03,14,36,5.30
2006,02,03,14,37,6.00
2006,02,03,14,38,9.50
2006,02,03,14,39,8.60
2006,02,03,14,40,10.50
2006,02,03,14,41,9.60
2006,02,03,14,42,10.10
2006,02,03,14,43,10.90
2006,02,03,14,44,9.00
2006,02,03,14,45,9.90
2006,02,03,14,46,8.60
2006,02,03,14,47,13.70
2006,02,03,14,48,12.90
2006,02,03,14,49,9.80
2006,02,03,14,50,12.80
2006,02,03,14,51,17.30
2006,02,03,14,52,11.70
2006,02,03,14,53,16.40
2006,02,03,14,54,11.70
2006,02,03,14,55,9.00
2006,02,03,14,56,10.90
2006,02,03,14,57,11.10
2006,02,03,14,58,9.70
2006,02,03,14,59,12.60
2006,02,03,15,00,9.20
2006,02,03,15,01,16.30
2006,02,03,15,02,16.30
2006,02,03,15,03,19.30
2006,02,03,15,04,11.10
2006,02,03,15,05,11.80
2006,02,03,15,06,13.90
2006,02,03,15,07,6.60
2006,02,03,15,08,8.30
2006,02,03,15,09,9.40
2006,02,03,15,10,9.40
2006,02,03,15,11,11.10
2006,02,03,15,12,6.30
2006,02,03,15,13,6.40
2006,02,03,15,14,6.90
2006,02,03,15,15,11.00
2006,02,03,15,16,12.40
2006,02,03,15,17,6.80
2006,02,03,15,18,8.60
2006,02,03,15,19,16.20
2006,02,03,15,20,12.80
2006,02,03,15,21,13.60
2006,02,03,15,22,12.30
2006,02,03,15,23,12.10
2006,02,03,15,24,11.40
2006,02,03,15,25,8.10
2006,02,03,15,26,9.80
2006,02,03,15,27,8.60
2006,02,03,15,28,13.90
2006,02,03,15,29,10.90
2006,02,03,15,30,15.10
2006,02,03,15,31,9.30
2006,02,03,15,32,12.50
2006,02,03,15,33,9.80
2006,02,03,15,34,8.60
2006,02,03,15,35,12.40
2006,02,03,15,36,10.50
2006,02,03,15,37,11.20
2006,02,03,15,38,16.20
2006,02,03,15,39,9.70
2006,02,03,15,40,12.40
2006,02,03,15,41,11.80
2006,02,03,15,42,13.30
2006,02,03,15,43,14.30
2006,02,03,15,44,14.40
2006,02,03,15,45,16.40
2006,02,03,15,46,10.60
2006,02,03,15,47,6.50
2006,02,03,15,48,7.70
2006,02,03,15,49,5.40
2006,02,03,15,50,6.70
2006,02,03,15,51,5.80
2006,02,03,15,52,6.10
2006,02,03,15,53,11.30
2006,02,03,15,54,9.10
2006,02,03,15,55,9.50
2006,02,03,15,56,7.30
2006,02,03,15,57,5.00
2006,02,03,15,58,10.00
2006,02,03,15,59,4.80
2006,02,03,16,00,5.90
2006,02,03,16,01,8.70
2006,02,03,16,02,5.60
2006,02,03,16,03,5.30
2006,02,03,16,04,11.00
2006,02,03,16,05,13.10
2006,02,03,16,06,15.20
2006,02,03,16,07,14.10
2006,02,03,16,08,8.40
2006,02,03,16,09,5.60
2006,02,03,16,10,7.70
2006,02,03,16,11,13.10
2006,02,03,16,12,14.00
2006,02,03,16,13,8.80
2006,02,03,16,14,7.50
2006,02,03,16,15,13.00
2006,02,03,16,16,12.30
2006,02,03,16,17,8.60
2006,02,03,16,18,11.50
2006,02,03,16,19,8.40
2006,02,03,16,20,8.00
2006,02,03,16,21,8.30
2006,02,03,16,22,6.80
2006,02,03,16,23,7.40
2006,02,03,16,24,8.10
2006,02,03,16,25,7.40
2006,02,03,16,26,8.10
2006,02,03,16,27,8.10
2006,02,03,16,28,10.40
2006,02,03,16,29,6.60
2006,02,03,16,30,6.90
2006,02,03,16,31,5.90
2006,02,03,16,32,10.00
2006,02,03,16,33,8.30
2006,02,03,16,34,11.40
2006,02,03,16,35,11.10
2006,02,03,16,36,13.40
2006,02,03,16,37,9.90
2006,02,03,16,38,12.30
2006,02,03,16,39,16.50
2006,02,03,16,40,14.10
2006,02,03,16,41,12.40
2006,02,03,16,42,12.10
2006,02,03,16,43,10.60
2006,02,03,16,44,15.90
2006,02,03,16,45,19.20
2006,02,03,16,46,10.30
2006,02,03,16,47,13.30
2006,02,03,16,48,11.90
2006,02,03,16,49,12.70
2006,02,03,16,50,16.10
2006,02,03,16,51,17.70
2006,02,03,16,52,19.00
2006,02,03,16,53,16.60
2006,02,03,16,54,12.50
2006,02,03,16,55,11.00
2006,02,03,16,56,14.80
2006,02,03,16,57,11.30
2006,02,03,16,58,13.80
2006,02,03,16,59,19.20
2006,02,03,17,00,17.00
2006,02,03,17,01,22.30
2006,02,03,17,02,18.70
2006,02,03,17,03,12.20
2006,02,03,17,04,11.20
2006,02,03,17,05,12.90
2006,02,03,17,06,10.80
2006,02,03,17,07,11.60
2006,02,03,17,08,8.40
2006,02,03,17,09,17.30
2006,02,03,17,10,22.50
2006,02,03,17,11,26.50
2006,02,03,17,12,28.30
2006,02,03,17,13,12.80
2006,02,03,17,14,15.30
2006,02,03,17,15,16.50
2006,02,03,17,16,21.60
2006,02,03,17,17,14.30
2006,02,03,17,18,10.00
2006,02,03,17,19,11.80
2006,02,03,17,20,16.70
2006,02,03,17,21,10.70
2006,02,03,17,22,18.10
2006,02,03,17,23,16.10
2006,02,03,17,24,16.50
2006,02,03,17,25,13.80
2006,02,03,17,26,16.50
2006,02,03,17,27,15.70
2006,02,03,17,28,7.50
2006,02,03,17,29,8.80
2006,02,03,17,30,12.30
2006,02,03,17,31,16.60
2006,02,03,17,32,17.40
2006,02,03,17,33,10.00
2006,02,03,17,34,12.30
2006,02,03,17,35,18.50
2006,02,03,17,36,12.70
2006,02,03,17,37,5.90
2006,02,03,17,38,5.20
2006,02,03,17,39,10.90
2006,02,03,17,40,11.80
2006,02,03,17,41,9.10
2006,02,03,17,42,14.90
2006,02,03,17,43,19.60
2006,02,03,17,44,8.00
2006,02,03,17,45,12.00
2006,02,03,17,46,14.40
2006,02,03,17,47,12.80
2006,02,03,17,48,13.30
2006,02,03,17,49,19.50
2006,02,03,17,50,12.40
2006,02,03,17,51,17.30
2006,02,03,17,52,11.00
2006,02,03,17,53,13.80
2006,02,03,17,54,10.50
2006,02,03,17,55,15.00
2006,02,03,17,56,14.90
2006,02,03,17,57,9.40
2006,02,03,17,58,16.30
2006,02,03,17,59,16.50